Weather History for Houston Intercontinental, TX

Change the Weather History Date:

Wednesday, January 30, 2013

  Actual Average Record
Temperature  
Mean Temperature 51 °F -  
Max Temperature 61 °F 61 °F 79 °F (2002)
Min Temperature 41 °F 43 °F 30 °F (1997)
Degree Days  
Heating Degree Days 14    
Growing Degree Days 1 (Base 50)    
Moisture  
Dew Point 30 °F    
Average Humidity 39    
Maximum Humidity 78    
Minimum Humidity 19    
Precipitation  
Precipitation 0.00 in - - ()
Sea Level Pressure  
Sea Level Pressure 30.02 in    
Wind  
Wind Speed 11 mph (NW)    
Max Wind Speed 24 mph    
Max Gust Speed 34 mph    
Visibility 10 miles    
Events      
Averages and records for this station are not official NWS values.
T = Trace of Precipitation, MM = Missing Value Source: NWS Daily Summary

Daily Weather History Graph

Daily Weather History Graph

Search for Another Location

Airport:

Trip Planner

Search our weather history database for the weather conditions in past years. The results will help you decide how hot, cold, wet, or windy it might be!

Date:

Astronomy

Jan. 30, 2013 Rise Set
Actual Time 7:12 AM CST 5:57 PM CST
Civil Twilight 6:47 AM CST 6:22 PM CST
Nautical Twilight 6:18 AM CST 6:51 PM CST
Astronomical Twilight 5:50 AM CST 7:19 PM CST
Moon 9:34 PM CST (1/30) 9:00 AM CST (1/30)
Length of Visible Light 11h 34m
Length of Day
10h 44m
Waning Gibbous, 87% of the Moon is Illuminated
Jan 30
Waning Gibbous
Feb 3
Last Quarter
Feb 10
New
Feb 17
First Quarter
Feb 25
Full

Hourly Weather History & Observations

Time (CST) Temp. Dew Point Humidity Pressure Visibility Wind Dir Wind Speed Gust Speed Precip Events Conditions
12:53 AM 60.1 °F 53.1 °F 78% 29.78 in 10.0 mi NW 4.6 mph - N/A   Overcast
1:53 AM 61.0 °F 48.0 °F 62% 29.79 in 10.0 mi WNW 6.9 mph - N/A   Overcast
2:53 AM 61.0 °F 37.9 °F 42% 29.80 in 10.0 mi WNW 12.7 mph - N/A   Overcast
3:53 AM 60.1 °F 32.0 °F 35% 29.81 in 10.0 mi NW 12.7 mph - N/A   Overcast
4:53 AM 59.0 °F 30.9 °F 35% 29.83 in 10.0 mi WNW 6.9 mph - N/A   Overcast
5:53 AM 57.9 °F 27.0 °F 31% 29.86 in 10.0 mi WNW 9.2 mph - N/A   Overcast
6:53 AM 57.0 °F 26.1 °F 30% 29.88 in 10.0 mi West 11.5 mph 21.9 mph N/A   Overcast
7:53 AM 57.0 °F 23.0 °F 27% 29.92 in 10.0 mi WNW 15.0 mph 24.2 mph N/A   Overcast
8:53 AM 57.0 °F 21.9 °F 26% 29.95 in 10.0 mi WNW 18.4 mph 28.8 mph N/A   Scattered Clouds
9:53 AM 57.0 °F 24.1 °F 28% 29.99 in 10.0 mi WNW 19.6 mph 33.4 mph N/A   Clear
10:53 AM 57.0 °F 30.9 °F 37% 30.03 in 10.0 mi NW 24.2 mph 34.5 mph N/A   Clear
11:53 AM 57.9 °F 30.0 °F 35% 30.05 in 10.0 mi NW 21.9 mph 31.1 mph N/A   Partly Cloudy
12:53 PM 57.9 °F 30.0 °F 35% 30.04 in 10.0 mi NW 24.2 mph 33.4 mph N/A   Partly Cloudy
1:53 PM 60.8 °F 30.2 °F 31% 30.03 in 10.0 mi WNW 18.4 mph 33.4 mph N/A   Partly Cloudy
2:53 PM 59.0 °F 27.0 °F 29% 30.06 in 10.0 mi NNW 23.0 mph 34.5 mph N/A   Partly Cloudy
3:53 PM 57.9 °F 25.0 °F 28% 30.06 in 10.0 mi NW 20.7 mph 26.5 mph N/A   Partly Cloudy
4:53 PM 57.0 °F 25.0 °F 29% 30.10 in 10.0 mi NW 17.3 mph 24.2 mph N/A   Partly Cloudy
5:53 PM 54.0 °F 25.0 °F 33% 30.10 in 10.0 mi NNW 11.5 mph - N/A   Partly Cloudy
6:53 PM 52.0 °F 27.0 °F 38% 30.14 in 10.0 mi NNW 8.1 mph - N/A   Partly Cloudy
7:53 PM 50.0 °F 28.0 °F 43% 30.17 in 10.0 mi Calm Calm - N/A   Partly Cloudy
8:53 PM 46.9 °F 28.9 °F 50% 30.20 in 10.0 mi Calm Calm - N/A   Partly Cloudy
9:53 PM 46.0 °F 28.9 °F 51% 30.21 in 10.0 mi Calm Calm - N/A   Clear
10:53 PM 41.0 °F 34.0 °F 76% 30.24 in 10.0 mi Calm Calm - N/A   Partly Cloudy
11:53 PM 41.0 °F 32.0 °F 70% 30.25 in 10.0 mi Calm Calm - N/A   Partly Cloudy